[[{"header":{"parameterUnit":"m.s-1","parameterCategory":1,"la1":30.2991,"la2":30.254,"lo1":-89.0895,"lo2":-89.0444,"dy":0.0017,"dx":0.0017,"nx":28,"ny":28,"refTime":"2025-06-22T09:00:00:Z","depth":0,"parameterNumber":2,"parameterNumberName":"U-component_of_WINDS"},"data":[0,0,0,0,0,0,0,0,0,0,0,0,0,0,0,0,0,0,0,0,0,0,0,0,0,0,0,0,0,0,0,0,0,0,0,0,0,0,0,0,0,0,0,0,0,0,0,0,0,0,0,0,0,0,0,0,0,0,-1.0165,-1.0165,0,-1.0156,-1.0156,-1.0156,-1.011,-1.0109,-1.0108,-1.0107,-1.0099,-1.01,-1.01,0,0,0,0,0,0,0,0,0,0,0,0,0,-1.0145,-1.0145,-1.0165,-1.0165,-1.0165,-1.0156,-1.0156,-1.0156,-1.011,-1.0109,-1.0107,-1.0106,-1.0099,-1.01,-1.0101,0,0,0,0,0,0,0,0,0,0,0,0,0,-1.0146,-1.0145,-1.0165,-1.0141,-1.0139,-1.0156,-1.0156,-1.0156,-1.011,-1.0109,-1.0107,-1.0106,-1.0098,-1.01,-1.0101,-1.0141,0,0,-1.0104,-1.0105,0,0,0,0,0,0,0,0,-1.0146,-1.0147,-1.0145,-1.0143,-1.014,-1.0132,-1.0146,-1.0151,-1.0111,-1.0121,-1.0107,-1.0105,-1.0112,-1.0112,-1.0113,-1.0141,-1.014,-1.0105,-1.0105,-1.0106,-1.0106,0,0,0,0,0,0,0,-1.0146,-1.0147,-1.0162,-1.0145,-1.0142,-1.0131,-1.013,-1.0146,-1.0126,-1.012,-1.0117,-1.0116,-1.011,-1.0112,-1.0113,-1.014,-1.0104,-1.0106,-1.0106,-1.0107,-1.0199,-1.0201,0,0,0,0,0,0,-1.0149,-1.0148,-1.0162,-1.0161,-1.0139,-1.0133,-1.0131,-1.0137,-1.0125,-1.0122,-1.0118,-1.0114,-1.0111,-1.0112,-1.0112,-1.0158,-1.0106,-1.0107,-1.0108,-1.0197,-1.0199,-1.0201,0,0,0,0,0,0,-1.0149,-1.0151,-1.0162,-1.0154,-1.0154,-1.0135,-1.0142,-1.0137,-1.014,-1.0123,-1.012,-1.0124,-1.011,-1.0111,-1.0134,-1.0157,-1.0107,-1.0109,-1.0195,-1.0198,-1.02,-1.0251,0,0,0,0,0,0,-1.0149,-1.0151,-1.0166,-1.0154,-1.0155,-1.0184,-1.0143,-1.0138,-1.0142,-1.0137,-1.0128,-1.0125,-1.0109,-1.0132,-1.0135,-1.0158,-1.011,-1.0193,-1.0197,-1.02,-1.0247,-1.0255,-1.0262,0,0,0,0,0,-1.0148,-1.0181,-1.0167,-1.0169,-1.0173,-1.0185,-1.0186,-1.0165,-1.0144,-1.0159,-1.0148,-1.0126,-1.0154,-1.0135,-1.0138,-1.0162,-1.0192,-1.0196,-1.0199,-1.0244,-1.0253,-1.0261,0,0,0,0,0,0,-1.0197,-1.0179,-1.0163,-1.0194,-1.0191,-1.0177,-1.0196,-1.0176,-1.018,-1.0176,-1.0151,-1.0149,-1.0176,-1.0171,-1.015,-1.02,-1.0169,-1.0174,-1.0202,-1.0211,-1.0218,-1.0219,-1.0111,0,0,0,0,0,-1.0212,-1.0223,-1.0206,-1.0235,-1.0234,-1.0215,-1.022,-1.0204,-1.0201,-1.02,-1.0191,-1.0189,-1.0198,-1.0204,-1.0211,-1.0246,-1.0243,-1.0264,-1.0271,-1.0277,-1.0281,-1.0299,-1.0308,-1.0214,-1.0214,-1.0214,0,0,-1.0242,-1.0233,-1.0242,-1.0244,-1.0241,-1.0253,-1.0215,-1.023,-1.0239,-1.0202,-1.0223,-1.0217,-1.0213,-1.0242,-1.0255,-1.0239,-1.0306,-1.0282,-1.0287,-1.0288,-1.0304,-1.0313,-1.0321,-1.0217,-1.0216,-1.0216,0,0,-1.0302,-1.0297,-1.0319,-1.0316,-1.0311,-1.0298,-1.0303,-1.0292,-1.0286,-1.0307,-1.028,-1.029,-1.0306,-1.0304,-1.0305,-1.0364,-1.0343,-1.0367,-1.0405,-1.0422,-1.043,-1.0436,-1.0457,-1.0465,-1.0371,-1.0371,-1.0372,0,-1.034,-1.0357,-1.0334,-1.035,-1.0352,-1.0319,-1.0341,-1.034,-1.0337,-1.034,-1.0322,-1.034,-1.0335,-1.0363,-1.0377,-1.0379,-1.0385,-1.0368,-1.0431,-1.0437,-1.0442,-1.0462,-1.047,-1.0374,-1.0374,-1.0374,-1.0373,0,-1.0404,-1.0416,-1.0435,-1.0432,-1.0436,-1.0456,-1.0436,-1.0443,-1.0427,-1.0416,-1.0437,-1.043,-1.0434,-1.044,-1.0425,-1.0466,-1.0456,-1.0435,-1.0404,-1.0455,-1.0473,-1.048,-1.0379,-1.0377,-1.0377,-1.0376,0,0,-1.0496,-1.0479,-1.0486,-1.0485,-1.0476,-1.0485,-1.0503,-1.0507,-1.0513,-1.0512,-1.0527,-1.054,-1.052,-1.0521,-1.0506,-1.0521,-1.0568,-1.0498,-1.0497,-1.0511,-1.0612,-1.0628,-1.0637,-1.0554,-1.0555,-1.0556,-1.0612,0,-1.0553,-1.0582,-1.0562,-1.0594,-1.0605,-1.0574,-1.0589,-1.0586,-1.0576,-1.0584,-1.0573,-1.0582,-1.0556,-1.0556,-1.057,-1.0559,-1.0588,-1.0555,-1.0567,-1.0568,-1.0569,-1.0646,-1.0663,-1.0717,-1.0619,-1.062,-1.0621,0,-1.0625,-1.0626,-1.066,-1.0648,-1.0652,-1.0666,-1.0667,-1.0675,-1.0671,-1.0662,-1.0663,-1.0643,-1.066,-1.0629,-1.0652,-1.063,-1.0634,-1.063,-1.0631,-1.0632,-1.0598,-1.0649,-1.0733,-1.0741,-1.0632,-1.0631,-1.063,0,-1.0688,-1.0698,-1.072,-1.0719,-1.0706,-1.0717,-1.0712,-1.0705,-1.0709,-1.071,-1.0712,-1.0716,-1.0718,-1.0721,-1.0703,-1.0682,-1.0728,-1.0696,-1.0722,-1.0722,-1.0733,-1.0733,-1.0819,-1.0736,-1.0736,-1.0736,-1.0735,0,-1.0755,-1.0777,-1.0748,-1.0761,-1.0784,-1.076,-1.0784,-1.0776,-1.077,-1.0781,-1.0755,-1.0766,-1.0741,-1.0749,-1.0735,-1.0756,-1.0757,-1.0751,-1.0747,-1.0754,-1.0754,-1.0756,-1.0752,-1.0738,-1.0737,-1.0737,-1.0736,0,-1.083,-1.0811,-1.0832,-1.0818,-1.0815,-1.0833,-1.082,-1.0832,-1.082,-1.0834,-1.0836,-1.0817,-1.0826,-1.0808,-1.0814,-1.0805,-1.0834,-1.0824,-1.0836,-1.0833,-1.086,-1.0857,-1.095,-1.0961,-1.0871,-1.0872,-1.0872,0,-1.0874,-1.089,-1.0876,-1.0881,-1.0878,-1.0886,-1.0889,-1.0866,-1.087,-1.0866,-1.0878,-1.0884,-1.0888,-1.0903,-1.089,-1.0895,-1.0885,-1.0917,-1.0886,-1.0891,-1.0885,-1.0885,-1.0886,-1.0924,-1.0925,-1.0926,-1.0927,0,-1.0953,-1.0943,-1.0948,-1.095,-1.0954,-1.0954,-1.0953,-1.0959,-1.0934,-1.094,-1.0948,-1.0951,-1.0957,-1.0964,-1.0965,-1.096,-1.094,-1.0936,-1.0943,-1.0949,-1.0955,-1.0952,-1.0853,-1.0935,-1.0934,-1.0933,-1.0933,-1.0932,-1.1014,-1.1026,-1.1019,-1.1025,-1.1021,-1.102,-1.103,-1.1019,-1.1025,-1.1027,-1.1013,-1.1024,-1.1018,-1.1018,-1.1015,-1.1024,-1.101,-1.1019,-1.1021,-1.1024,-1.1028,-1.0954,-1.1024,-1.1024,-1.1024,-1.1024,-1.1023,0,-1.1092,-1.1085,-1.1091,-1.109,-1.1095,-1.1073,-1.1071,-1.1076,-1.1086,-1.1082,-1.1086,-1.1095,-1.1101,-1.1088,-1.1092,-1.1101,-1.1092,-1.1103,-1.1102,-1.1102,-1.1041,-1.1035,-1.1111,-1.1111,-1.1111,-1.1111,-1.1111,-1.1111,-1.1134,-1.1153,-1.1142,-1.1159,-1.1152,-1.1162,-1.1162,-1.1161,-1.1158,-1.1169,-1.1173,-1.1165,-1.1157,-1.116,-1.1165,-1.1161,-1.1163,-1.1178,-1.1171,-1.1114,-1.1106,-1.1098,-1.1092,-1.1179,-1.1179,-1.1231,-1.1232,-1.1232]},{"header":{"parameterUnit":"m.s-1","parameterCategory":1,"la1":30.2991,"la2":30.254,"lo1":-89.0895,"lo2":-89.0444,"dy":0.0017,"dx":0.0017,"nx":28,"ny":28,"refTime":"2025-06-22T09:00:00:Z","depth":0,"parameterNumber":3,"parameterNumberName":"V-component_of_WINDS"},"data":[0,0,0,0,0,0,0,0,0,0,0,0,0,0,0,0,0,0,0,0,0,0,0,0,0,0,0,0,0,0,0,0,0,0,0,0,0,0,0,0,0,0,0,0,0,0,0,0,0,0,0,0,0,0,0,0,0,0,2.3664,2.3664,0,2.3679,2.368,2.368,2.3642,2.3641,2.364,2.3639,2.3654,2.3655,2.3657,0,0,0,0,0,0,0,0,0,0,0,0,0,2.3601,2.3603,2.3664,2.3664,2.3665,2.3679,2.368,2.368,2.3642,2.3641,2.364,2.3638,2.3653,2.3655,2.3657,0,0,0,0,0,0,0,0,0,0,0,0,0,2.3624,2.3603,2.3664,2.3648,2.3646,2.3679,2.368,2.368,2.3643,2.3641,2.3639,2.3638,2.3653,2.3655,2.3657,2.3707,0,0,2.3664,2.3665,0,0,0,0,0,0,0,0,2.3623,2.3626,2.365,2.3649,2.3647,2.3657,2.3663,2.3689,2.3643,2.3644,2.3639,2.3637,2.3656,2.3658,2.3665,2.3707,2.3708,2.3664,2.3666,2.3667,2.3667,0,0,0,0,0,0,0,2.3621,2.3625,2.367,2.365,2.3649,2.3639,2.364,2.3668,2.366,2.3644,2.3641,2.3644,2.3655,2.3663,2.3665,2.3708,2.3664,2.3666,2.3668,2.3669,2.379,2.3792,0,0,0,0,0,0,2.3622,2.3624,2.367,2.3671,2.363,2.3642,2.3643,2.3656,2.366,2.3658,2.3645,2.3642,2.366,2.3662,2.3665,2.3722,2.3667,2.3669,2.367,2.3788,2.3791,2.3793,0,0,0,0,0,0,2.3621,2.3626,2.3669,2.3647,2.3651,2.3645,2.3659,2.3657,2.3664,2.366,2.3659,2.3654,2.3659,2.3662,2.3696,2.3722,2.367,2.3672,2.3786,2.3789,2.3792,2.3837,0,0,0,0,0,0,2.3619,2.3626,2.3645,2.3647,2.3653,2.37,2.3661,2.3659,2.3669,2.3664,2.3669,2.3668,2.3658,2.3693,2.3699,2.3724,2.3674,2.3784,2.3787,2.3791,2.3833,2.3841,2.3848,0,0,0,0,0,2.3617,2.3658,2.3646,2.3652,2.3677,2.3702,2.3705,2.3692,2.3671,2.369,2.3687,2.3667,2.3719,2.3697,2.3703,2.373,2.3782,2.3786,2.3791,2.383,2.384,2.3848,0,0,0,0,0,0,2.3659,2.3658,2.3645,2.3688,2.3695,2.3695,2.3719,2.3703,2.3717,2.3712,2.3696,2.3698,2.3734,2.3736,2.3711,2.3777,2.3747,2.3752,2.3775,2.3784,2.3791,2.3789,2.3675,0,0,0,0,0,2.3673,2.3694,2.3692,2.3729,2.3734,2.3726,2.3736,2.3726,2.3733,2.3736,2.3736,2.3743,2.376,2.3772,2.3788,2.3834,2.3833,2.3855,2.3862,2.3868,2.3873,2.3895,2.3904,2.3807,2.3807,2.3806,0,0,2.3702,2.3704,2.3718,2.3738,2.3742,2.3764,2.3729,2.3753,2.3768,2.374,2.3771,2.3771,2.3778,2.3818,2.3835,2.382,2.39,2.3874,2.3878,2.388,2.3901,2.391,2.3918,2.3809,2.3809,2.3808,0,0,2.3766,2.3771,2.3802,2.3807,2.3814,2.3808,2.3816,2.3818,2.3817,2.3849,2.3827,2.3845,2.3876,2.3882,2.3889,2.3954,2.3936,2.396,2.3998,2.402,2.4027,2.4034,2.4056,2.4064,2.3965,2.3965,2.3965,0,2.3802,2.3833,2.382,2.3845,2.3854,2.3829,2.386,2.3865,2.3877,2.3884,2.3867,2.3904,2.3907,2.3947,2.3962,2.3969,2.3977,2.3959,2.4027,2.4034,2.404,2.4061,2.4069,2.3967,2.3967,2.3967,2.3967,0,2.3876,2.3898,2.3923,2.3934,2.3946,2.3974,2.3964,2.3977,2.3966,2.3962,2.3994,2.3997,2.4012,2.4021,2.4011,2.4059,2.4049,2.403,2.3999,2.4052,2.4071,2.4079,2.3971,2.397,2.397,2.3969,0,0,2.3967,2.397,2.3979,2.3984,2.3989,2.4006,2.4033,2.4048,2.4059,2.4068,2.4089,2.4116,2.4098,2.4105,2.4095,2.4115,2.4165,2.4093,2.4093,2.4105,2.4217,2.423,2.4239,2.4153,2.4155,2.4156,2.4215,0,2.4029,2.4075,2.4063,2.4108,2.4127,2.4103,2.4126,2.4132,2.4129,2.4145,2.4141,2.416,2.4135,2.414,2.4158,2.4155,2.4187,2.415,2.4172,2.4173,2.417,2.425,2.4264,2.432,2.4223,2.4224,2.4225,0,2.4108,2.4119,2.4166,2.4168,2.4175,2.4196,2.4208,2.4224,2.423,2.4226,2.4234,2.422,2.4245,2.4215,2.4249,2.4225,2.4233,2.4233,2.4235,2.4235,2.4201,2.4251,2.4338,2.4346,2.4237,2.4236,2.4235,0,2.4167,2.4195,2.4226,2.4231,2.4234,2.4249,2.425,2.4254,2.4264,2.4274,2.428,2.4294,2.4301,2.4312,2.4301,2.428,2.4337,2.4306,2.4333,2.4334,2.4345,2.4345,2.4433,2.4353,2.4353,2.4353,2.4353,0,2.4238,2.4267,2.4253,2.4272,2.4304,2.429,2.4321,2.432,2.4324,2.4342,2.4323,2.434,2.4325,2.4341,2.4333,2.4362,2.4366,2.4363,2.436,2.4364,2.4364,2.4368,2.4363,2.4355,2.4354,2.4354,2.4354,0,2.4309,2.4301,2.4333,2.4333,2.4333,2.4357,2.4356,2.4373,2.4369,2.4392,2.4396,2.4389,2.4406,2.4397,2.4416,2.441,2.4447,2.444,2.4445,2.4442,2.447,2.4467,2.4563,2.4575,2.4488,2.4489,2.449,0,2.4354,2.4376,2.4377,2.4388,2.4391,2.4409,2.4418,2.4405,2.4415,2.4422,2.4439,2.4454,2.4466,2.4495,2.4491,2.4505,2.4497,2.453,2.4499,2.4501,2.4496,2.4494,2.4496,2.4536,2.4537,2.4537,2.4538,0,2.4434,2.4428,2.4442,2.4455,2.4466,2.4476,2.4483,2.4493,2.448,2.4492,2.451,2.4519,2.4537,2.4553,2.4564,2.4566,2.455,2.4548,2.4555,2.4558,2.456,2.4558,2.446,2.4546,2.4545,2.4544,2.4544,2.4544,2.4492,2.451,2.4514,2.453,2.4534,2.4541,2.4557,2.4554,2.4568,2.4582,2.4573,2.4593,2.4597,2.4611,2.4615,2.463,2.4617,2.4627,2.4629,2.4632,2.4635,2.4558,2.4632,2.4632,2.4632,2.4632,2.4631,0,2.457,2.4571,2.4586,2.4596,2.4609,2.4592,2.46,2.4611,2.4629,2.4634,2.4646,2.4666,2.468,2.4677,2.4691,2.4703,2.4696,2.4707,2.4706,2.4706,2.4647,2.4639,2.4713,2.4713,2.4713,2.4713,2.4713,2.4713,2.4611,2.464,2.4635,2.4665,2.4666,2.4685,2.4691,2.4697,2.4701,2.4723,2.4735,2.4733,2.4735,2.4748,2.476,2.4759,2.4764,2.4778,2.4774,2.4718,2.471,2.4702,2.4695,2.4779,2.478,2.4831,2.4832,2.4832]}]]